Weather History for Kendall, FL

Change the Weather History Date:

Wednesday, February 13, 2013

  Actual Average Record
Temperature  
Mean Temperature 75 °F -  
Max Temperature 84 °F 79 °F 84 °F (2013)
Min Temperature 66 °F 53 °F 37 °F (2006)
Cooling Degree Days 10    
Growing Degree Days 25 (Base 50)    
Moisture  
Dew Point 69 °F    
Average Humidity 85    
Maximum Humidity 100    
Minimum Humidity 57    
Precipitation  
Precipitation 0.01 in - - ()
Sea Level Pressure  
Sea Level Pressure 29.99 in    
Wind  
Wind Speed 4 mph (South)    
Max Wind Speed 14 mph    
Max Gust Speed 20 mph    
Visibility 8 miles    
Events Fog    
Averages and records for this station are not official NWS values.
T = Trace of Precipitation, MM = Missing Value Source: NWS Daily Summary

Daily Weather History Graph

Daily Weather History Graph

Search for Another Location

Airport:

Trip Planner

Search our weather history database for the weather conditions in past years. The results will help you decide how hot, cold, wet, or windy it might be!

Date:

Astronomy

Feb. 13, 2013 Rise Set
Actual Time 6:58 AM EST 6:14 PM EST
Civil Twilight 6:34 AM EST 6:37 PM EST
Nautical Twilight 6:07 AM EST 7:04 PM EST
Astronomical Twilight 5:40 AM EST 7:31 PM EST
Moon 8:54 AM EST (2/13) 9:44 PM EST (2/13)
Length of Visible Light 12h 03m
Length of Day
11h 16m
Waxing Crescent, 13% of the Moon is Illuminated
Feb 13
Waxing Crescent
Feb 17
First Quarter
Feb 25
Full
Mar 4
Last Quarter
Mar 11
New

Hourly Weather History & Observations

Time (EST) Temp. Heat Index Dew Point Humidity Pressure Visibility Wind Dir Wind Speed Gust Speed Precip Events Conditions
12:53 AM 69.1 °F - 68.0 °F 96% 30.03 in 10.0 mi Calm Calm - N/A   Clear
1:53 AM 70.0 °F - 68.0 °F 93% 30.01 in 10.0 mi Calm Calm - N/A   Partly Cloudy
2:53 AM 70.0 °F - 69.1 °F 97% 30.00 in 10.0 mi Calm Calm - N/A   Mostly Cloudy
3:21 AM 69.8 °F - 69.8 °F 100% 29.99 in 10.0 mi SE 3.5 mph - N/A   Mostly Cloudy
3:30 AM 69.8 °F - 69.8 °F 100% 29.99 in 10.0 mi SSE 3.5 mph - N/A   Scattered Clouds
3:53 AM 70.0 °F - 69.1 °F 97% 29.98 in 10.0 mi SSE 3.5 mph - N/A   Clear
4:50 AM 69.8 °F - 68.0 °F 94% 29.99 in 2.0 mi Calm Calm - 0.01 in   Mostly Cloudy
4:53 AM 69.1 °F - 68.0 °F 96% 29.99 in 1.2 mi Calm Calm - 0.01 in   Mostly Cloudy
5:03 AM 69.8 °F - 68.0 °F 94% 29.99 in 0.5 mi Calm Calm - N/A Fog Fog
5:28 AM 66.2 °F - 66.2 °F 100% 29.99 in 0.5 mi Calm Calm - N/A Fog Fog
5:53 AM 68.0 °F - 68.0 °F 100% 29.99 in 0.5 mi Calm Calm - N/A Fog Fog
6:41 AM 68.0 °F - 68.0 °F 100% 30.00 in 2.0 mi Calm Calm - N/A   Overcast
6:49 AM 69.8 °F - 69.8 °F 100% 30.00 in 6.0 mi SSE 3.5 mph - N/A   Mostly Cloudy
6:53 AM 69.1 °F - 69.1 °F 100% 30.00 in 10.0 mi SE 3.5 mph - N/A   Overcast
7:53 AM 72.0 °F - 71.1 °F 97% 30.01 in 10.0 mi SSE 4.6 mph - N/A   Scattered Clouds
8:53 AM 77.0 °F - 72.0 °F 84% 30.02 in 10.0 mi SSE 8.1 mph - N/A   Scattered Clouds
9:33 AM 78.8 °F - 71.6 °F 78% 30.02 in 10.0 mi South 10.4 mph 19.6 mph N/A   Mostly Cloudy
9:53 AM 79.0 °F - 70.0 °F 74% 30.03 in 10.0 mi SSW 9.2 mph 17.3 mph N/A   Mostly Cloudy
10:08 AM 80.6 °F 83.9 °F 69.8 °F 70% 30.03 in 10.0 mi South 6.9 mph - N/A   Scattered Clouds
10:53 AM 82.9 °F 86.5 °F 69.1 °F 63% 30.02 in 10.0 mi South 10.4 mph - N/A   Partly Cloudy
11:53 AM 84.0 °F 87.0 °F 68.0 °F 58% 30.01 in 10.0 mi SSW 12.7 mph 18.4 mph N/A   Partly Cloudy
12:53 PM 84.0 °F 87.0 °F 68.0 °F 58% 29.99 in 10.0 mi South 11.5 mph 18.4 mph N/A   Mostly Cloudy
1:53 PM 84.9 °F 88.2 °F 68.0 °F 57% 29.96 in 10.0 mi SSW 13.8 mph 19.6 mph N/A   Partly Cloudy
2:53 PM 84.9 °F 88.2 °F 68.0 °F 57% 29.94 in 10.0 mi SSW 12.7 mph 19.6 mph N/A   Mostly Cloudy
3:53 PM 82.9 °F 86.5 °F 69.1 °F 63% 29.94 in 10.0 mi South 9.2 mph 19.6 mph N/A   Scattered Clouds
4:53 PM 81.0 °F 83.8 °F 68.0 °F 65% 29.94 in 10.0 mi SSW 11.5 mph 19.6 mph N/A   Clear
5:53 PM 79.0 °F - 69.1 °F 72% 29.94 in 10.0 mi SSW 10.4 mph - N/A   Clear
6:53 PM 75.9 °F - 69.1 °F 79% 29.95 in 10.0 mi South 8.1 mph - N/A   Clear
7:53 PM 75.0 °F - 70.0 °F 84% 29.96 in 10.0 mi South 5.8 mph - N/A   Clear
8:53 PM 73.0 °F - 70.0 °F 90% 29.98 in 10.0 mi Calm Calm - N/A   Clear
9:53 PM 73.0 °F - 69.1 °F 87% 29.99 in 10.0 mi South 4.6 mph - N/A   Clear
10:53 PM 72.0 °F - 70.0 °F 93% 30.00 in 10.0 mi South 3.5 mph - N/A   Scattered Clouds
11:53 PM 72.0 °F - 70.0 °F 93% 30.00 in 10.0 mi South 4.6 mph - N/A   Mostly Cloudy